Weather reports worldwide

Advertisment
Hondo, tx, United States of America (2074514): temperature & dewpoint: 10.01.2019 11:00:00 - 16.01.2019 11:00:00 (CST)Hondo, tx, United States of America (2074514): wind speed: 10.01.2019 11:00:00 - 16.01.2019 11:00:00 (CST)Hondo, tx, United States of America (2074514): wind direction: 10.01.2019 11:00:00 - 16.01.2019 11:00:00 (CST)Hondo, tx, United States of America (2074514): reduced air pressure: 10.01.2019 11:00:00 - 16.01.2019 11:00:00 (CST)Hondo, tx, United States of America (2074514): visibility: 10.01.2019 11:00:00 - 16.01.2019 11:00:00 (CST)Hondo, tx, United States of America (2074514): precipitation: 10.01.2019 11:00:00 - 16.01.2019 11:00:00 (CST)
Date & Time tt [°C] td [°C] ff [km/h] ff [kn] dd ppp [hPa] vv [km] rr [mm]
16.01.2019 11:00:00 13,9 12,2 0 0 N 1024,6 16 0,0
16.01.2019 10:00:00 12,2 11,1 8 4 NW 1024,4 6 -
16.01.2019 09:00:00 11,7 10,0 5 3 N 1023,7 4,8 -
16.01.2019 08:00:00 10,6 9,4 5 3 E 1023,7 2,0 -
16.01.2019 07:00:00 10,6 9,4 0 0 N 1023,1 3,2 0,0
16.01.2019 06:00:00 10,6 9,4 0 0 N 1022,8 4,8 -
16.01.2019 05:00:00 10,0 8,9 8 4 NNW 1023,1 4,0 -
16.01.2019 04:00:00 10,0 8,9 5 3 NNE 1023,5 3,2 -
16.01.2019 03:00:00 10,0 8,9 0 0 N 1023,7 4,0 -
16.01.2019 02:00:00 10,0 8,3 0 0 N 1023,9 8 -
16.01.2019 01:00:00 10,6 8,3 0 0 N 1024,2 11 -
16.01.2019 00:00:00 10,6 8,9 0 0 N 1024,8 11 -
15.01.2019 23:00:00 10,0 8,3 0 0 N 1024,9 13 -
15.01.2019 22:00:00 10,0 8,3 0 0 N 1025,1 11 -
15.01.2019 21:00:00 10,0 8,3 8 4 NNE 1024,7 10 -
15.01.2019 20:00:00 10,0 8,3 0 0 N 1024,8 11 -
15.01.2019 19:00:00 10,0 8,3 0 0 N 1024,9 13 -
15.01.2019 18:00:00 10,0 7,8 5 3 SSE 1024,0 11 0,0
15.01.2019 17:00:00 10,0 7,8 8 4 SE 1023,6 13 0,0
15.01.2019 16:00:00 10,0 7,8 5 3 SE 1024,3 15 0,0
15.01.2019 15:00:00 10,0 7,2 5 3 S 1024,8 10 0,0
15.01.2019 14:00:00 10,0 6,7 0 0 N 1025,4 15 -
15.01.2019 13:00:00 9,4 6,7 9 5 SSE 1026,4 13 -
15.01.2019 12:00:00 8,9 6,1 5 3 SE 1028,1 10 -
15.01.2019 11:00:00 8,9 6,1 8 4 E 1028,8 10 -
15.01.2019 10:00:00 7,8 6,1 5 3 ESE 1029,0 4,0 -
15.01.2019 09:00:00 7,8 6,1 5 3 SSE 1028,2 4,0 -
15.01.2019 08:00:00 7,8 5,0 5 3 E 1027,4 10 -
15.01.2019 07:00:00 7,8 5,0 9 5 E 1026,6 15 -
15.01.2019 06:00:00 8,3 5,0 8 4 E 1026,1 13 -
15.01.2019 05:00:00 8,3 4,4 0 0 N 1026,2 15 -
15.01.2019 04:00:00 8,9 4,4 0 0 N 1026,6 16 -
15.01.2019 03:00:00 8,9 3,9 0 0 N 1026,6 16 -
15.01.2019 02:00:00 8,9 3,9 5 3 SE 1026,6 16 -
15.01.2019 01:00:00 8,9 3,9 5 3 SSE 1027,1 16 -
15.01.2019 00:00:00 8,9 3,9 8 4 S 1027,9 16 -
14.01.2019 23:00:00 8,9 3,9 8 4 SSE 1028,2 16 -
14.01.2019 22:00:00 9,4 3,9 8 4 SSE 1028,1 16 -
14.01.2019 21:00:00 9,4 3,9 9 5 SE 1027,9 16 -
14.01.2019 20:00:00 10,0 3,9 8 4 SSE 1028,2 16 -
14.01.2019 19:00:00 10,0 3,9 9 5 SSE 1027,9 16 -
14.01.2019 18:00:00 10,6 3,9 8 4 ESE 1027,5 16 -
14.01.2019 17:00:00 10,6 3,3 8 4 ESE 1027,5 16 -
14.01.2019 16:00:00 10,6 3,3 5 3 ESE 1027,4 16 -
14.01.2019 15:00:00 10,6 3,3 5 3 E 1028,2 16 -
14.01.2019 14:00:00 9,4 2,8 0 0 N 1028,7 16 -
14.01.2019 13:00:00 8,9 2,8 5 3 ENE 1030,1 16 -
14.01.2019 12:00:00 8,3 2,2 5 3 ENE 1031,4 16 -
14.01.2019 11:00:00 7,2 2,2 9 5 ENE 1032,1 16 -
14.01.2019 10:00:00 6,7 2,2 11 6 E 1031,7 16 -
14.01.2019 09:00:00 6,1 2,2 13 7 E 1031,1 16 -
14.01.2019 08:00:00 6,1 2,2 15 8 E 1030,7 16 -
14.01.2019 07:00:00 6,7 2,2 11 6 E 1030,3 16 -
14.01.2019 06:00:00 6,7 2,8 11 6 E 1029,6 16 -
14.01.2019 05:00:00 7,2 2,8 9 5 E 1029,2 16 -
14.01.2019 04:00:00 7,2 2,8 16 9 E 1028,9 16 -
14.01.2019 03:00:00 7,2 2,8 15 8 ENE 1028,9 16 -
14.01.2019 02:00:00 7,2 3,3 24 13 NE 1028,1 16 -
14.01.2019 01:00:00 6,1 3,3 9 5 ENE 1028,9 16 -
14.01.2019 00:00:00 6,7 3,3 13 7 E 1028,7 16 -
13.01.2019 23:00:00 7,8 3,3 13 7 ESE 1029,2 16 -
13.01.2019 22:00:00 8,9 3,9 13 7 ESE 1028,5 16 -
13.01.2019 21:00:00 10,0 3,9 11 6 ESE 1028,3 16 -
13.01.2019 20:00:00 12,2 4,4 15 8 ESE 1027,3 16 -
13.01.2019 19:00:00 13,3 3,9 11 6 E 1026,5 16 -
13.01.2019 18:00:00 14,4 3,9 11 6 ESE 1025,6 16 -
13.01.2019 17:00:00 15,0 3,9 9 5 ESE 1025,3 16 -
13.01.2019 16:00:00 15,0 3,3 8 4 E 1025,1 16 -
13.01.2019 15:00:00 15,0 3,3 9 5 SE 1025,1 16 -
13.01.2019 14:00:00 15,0 3,3 5 3 - 1025,6 16 -
13.01.2019 13:00:00 13,9 2,8 - - - 1026,8 16 -
13.01.2019 12:00:00 12,8 2,2 11 6 NNE 1027,8 16 -
13.01.2019 11:00:00 11,1 2,2 8 4 - 1028,8 16 -
13.01.2019 10:00:00 9,4 2,2 16 9 NNE 1028,8 16 -
13.01.2019 09:00:00 7,2 2,8 8 4 NE 1028,2 16 -
13.01.2019 08:00:00 3,9 0,6 8 4 NNE 1027,7 16 -
13.01.2019 07:00:00 3,3 0,6 5 3 ENE 1027,1 16 -
13.01.2019 06:00:00 2,8 1,1 9 5 N 1026,6 16 -
13.01.2019 05:00:00 2,2 0,0 9 5 NNE 1025,6 16 -
13.01.2019 04:00:00 2,2 0,6 8 4 SSW 1025,9 16 -
13.01.2019 03:00:00 3,9 1,1 13 7 NE 1024,7 16 -
13.01.2019 02:00:00 5,0 2,2 11 6 N 1024,7 16 -
13.01.2019 01:00:00 6,1 2,2 5 3 NNE 1024,5 16 -
13.01.2019 00:00:00 6,7 2,8 18 10 NNE 1024,8 16 -
12.01.2019 23:00:00 7,2 3,9 16 9 NNE 1024,6 16 -
12.01.2019 22:00:00 7,8 3,9 15 8 NNE 1024,6 16 -
12.01.2019 21:00:00 9,4 4,4 16 9 NNE 1023,9 16 -
12.01.2019 20:00:00 8,9 4,4 11 6 N 1023,2 16 -
12.01.2019 19:00:00 11,1 4,4 13 7 NNE 1022,0 16 -
12.01.2019 18:00:00 16,1 5,0 16 9 N 1020,5 16 -
12.01.2019 17:00:00 19,4 3,9 16 9 NW 1019,6 16 -
12.01.2019 16:00:00 20,6 3,9 22 12 NW 1018,9 16 -
12.01.2019 15:00:00 20,6 4,4 26 14 NW 1018,6 16 -
12.01.2019 14:00:00 21,1 5,6 24 13 NW 1018,2 16 -
12.01.2019 13:00:00 20,0 6,1 31 17 NW 1018,8 16 -
12.01.2019 12:00:00 19,4 7,2 16 9 NNW 1019,8 16 -
12.01.2019 11:00:00 17,2 8,9 22 12 N 1020,6 16 -
12.01.2019 10:00:00 14,4 8,9 26 14 N 1020,1 16 -
12.01.2019 09:00:00 12,8 11,7 5 3 WNW 1018,8 16 -
12.01.2019 08:00:00 10,6 10,0 8 4 NNW 1017,7 0,4 -
12.01.2019 07:00:00 11,1 10,6 5 3 NNW 1016,3 0,8 -
12.01.2019 06:00:00 14,4 12,8 15 8 W 1015,4 16 -
12.01.2019 05:00:00 15,0 13,9 15 8 W 1014,7 16 -
12.01.2019 04:00:00 15,0 14,4 11 6 W 1014,8 13 -
12.01.2019 03:00:00 15,0 14,4 11 6 WNW 1014,6 11 -
12.01.2019 02:00:00 15,0 14,4 11 6 WSW 1013,9 11 -
12.01.2019 01:00:00 15,0 14,4 15 8 W 1014,2 10 -
12.01.2019 00:00:00 15,0 14,4 0 0 N 1014,4 2,8 -
11.01.2019 23:00:00 15,6 15,0 0 0 N 1014,4 0,8 -
11.01.2019 22:00:00 15,6 15,0 5 3 WNW 1014,2 0,8 -
11.01.2019 21:00:00 15,0 15,0 5 3 NE 1013,0 4,8 0,0
11.01.2019 20:00:00 15,6 14,4 5 3 N 1011,4 8 0,0
11.01.2019 19:00:00 15,6 14,4 5 3 ESE 1015,0 8 0,3
11.01.2019 18:00:00 15,6 14,4 8 4 NW 1014,5 8 -
11.01.2019 17:00:00 16,1 15,0 8 4 NNW 1014,3 6 0,0
11.01.2019 16:00:00 16,1 14,4 0 0 N 1013,9 6 0,0
11.01.2019 15:00:00 15,6 14,4 5 3 SE 1014,2 2,8 0,3
11.01.2019 14:00:00 15,6 14,4 9 5 S 1014,7 6 0,3
11.01.2019 13:00:00 15,6 13,9 9 5 S 1015,5 13 0,8
11.01.2019 12:00:00 15,0 13,9 9 5 SE 1017,1 2,8 0,8
11.01.2019 11:00:00 13,9 12,8 13 7 ESE 1018,0 4,8 0,3
11.01.2019 10:00:00 13,9 12,8 9 5 SE 1018,3 3,2 0,3
11.01.2019 09:00:00 13,9 12,2 13 7 E 1017,7 16 0,5
11.01.2019 08:00:00 13,3 12,2 13 7 E 1017,8 6 0,0
11.01.2019 07:00:00 13,9 11,7 8 4 SE 1017,6 13 0,0
11.01.2019 06:00:00 13,9 11,1 11 6 SE 1017,3 16 -
11.01.2019 05:00:00 13,9 10,6 15 8 SSE 1017,4 16 -
11.01.2019 04:00:00 13,9 10,0 15 8 SSE 1018,0 16 -
11.01.2019 03:00:00 13,9 10,0 16 9 SE 1018,4 16 -
11.01.2019 02:00:00 13,9 10,0 13 7 SE 1018,8 16 -
11.01.2019 01:00:00 14,4 9,4 18 10 SE 1019,2 16 -
11.01.2019 00:00:00 14,4 7,8 21 11 SSE 1019,7 16 -
10.01.2019 23:00:00 15,0 6,1 22 12 SE 1020,5 16 -
10.01.2019 22:00:00 15,6 3,3 21 11 ESE 1020,4 16 -
10.01.2019 21:00:00 16,7 7,2 16 9 E 1020,7 16 -
10.01.2019 20:00:00 16,7 7,8 11 6 SSE 1020,8 16 -
10.01.2019 19:00:00 17,8 7,8 13 7 SSE 1020,8 16 -
10.01.2019 18:00:00 17,8 6,7 11 6 ESE 1020,5 16 -
10.01.2019 17:00:00 17,8 5,6 8 4 E 1020,7 16 -
10.01.2019 16:00:00 18,3 5,6 13 7 SE 1021,0 16 -
10.01.2019 15:00:00 18,3 3,9 13 7 SE 1021,3 16 -
10.01.2019 14:00:00 18,3 3,3 13 7 S 1022,0 16 -
10.01.2019 13:00:00 17,2 2,8 18 10 SSE 1023,2 16 -
10.01.2019 12:00:00 16,7 1,7 21 11 SSE 1025,0 16 -
10.01.2019 11:00:00 14,4 1,7 15 8 SE 1026,4 16 -

tt = temperature
td = dewpoint
ff = wind speed
dd = wind direction
ppp = reduced air pressure
vv = visibility
rr = precipitation

Next stations